M3SXA-5 Weather Reports


time (UTC)temp
C
wind
direction
speed
KPH
gust
KPH
rain 1hr
cm
rain 24hr
cm
rain mn
cm
humidity
%
barometer
mb
20260510183058 10 179 3.2 11.3 0.00 0.00 0.00 56 1016.7
20260510181553 10 323 0.0 6.4 0.00 0.00 0.00 55 1016.7
20260510180053 10 25 1.6 9.7 0.00 0.00 0.00 55 1016.7
20260510174552 11 8 4.8 14.5 0.00 0.00 0.00 55 1016.8
20260510173058 10 338 1.6 9.7 0.00 0.00 0.00 55 1016.9
20260510171555 11 10 3.2 11.3 0.00 0.00 0.00 54 1016.9
20260510170050 11 115 1.6 11.3 0.00 0.00 0.00 54 1017.0
20260510164548 12 153 1.6 12.9 0.00 0.00 0.00 53 1017.1
20260510163046 11 326 3.2 14.5 0.00 0.00 0.00 54 1017.4
20260510161644 11 349 4.8 14.5 0.00 0.00 0.00 52 1017.5
20260510160046 12 146 3.2 12.9 0.00 0.00 0.00 51 1017.5
20260510154545 13 43 3.2 12.9 0.00 0.00 0.00 50 1017.6
20260510153042 12 340 4.8 20.9 0.00 0.00 0.00 52 1017.7
20260510151543 13 96 1.6 9.7 0.00 0.00 0.00 51 1017.8
20260510150039 13 351 3.2 14.5 0.00 0.00 0.00 51 1018.0
20260510144536 12 103 4.8 17.7 0.00 0.00 0.00 54 1018.2
20260510143037 12 32 6.4 16.1 0.00 0.00 0.00 54 1018.3
20260510141532 12 75 4.8 14.5 0.00 0.00 0.00 57 1018.5
20260510140031 12 22 3.2 20.9 0.00 0.00 0.00 57 1018.5
20260510134532 13 181 3.2 17.7 0.00 0.00 0.00 56 1018.6
20260510133037 12 185 8.0 19.3 0.00 0.00 0.00 57 1018.7
20260510131525 12 327 3.2 19.3 0.00 0.00 0.00 58 1018.8
20260510130024 12 131 4.8 16.1 0.00 0.00 0.00 61 1018.8
20260510124522 12 7 3.2 16.1 0.00 0.00 0.00 60 1019.0
20260510123020 11 337 4.8 14.5 0.00 0.00 0.00 60 1019.2
20260510121518 11 47 3.2 20.9 0.00 0.00 0.00 62 1019.3
20260510120022 11 169 6.4 17.7 0.00 0.00 0.00 63 1019.4
20260510114521 11 290 6.4 17.7 0.00 0.00 0.00 64 1019.5
20260510113013 11 124 8.0 16.1 0.00 0.00 0.00 64 1019.6
20260510111512 11 172 4.8 19.3 0.00 0.00 0.00 66 1019.7
20260510110012 11 331 4.8 16.1 0.00 0.00 0.00 68 1019.7
20260510104508 10 208 3.2 19.3 0.00 0.00 0.00 71 1019.9
20260510103006 10 158 3.2 17.7 0.00 0.00 0.00 73 1020.0
20260510101504 10 161 3.2 17.7 0.00 0.00 0.00 74 1019.9
20260510100007 10 139 3.2 17.7 0.00 0.00 0.00 73 1019.9
20260510094504 10 337 3.2 14.5 0.00 0.00 0.00 74 1020.0
20260510093059 10 39 4.8 16.1 0.00 0.00 0.00 75 1020.0
20260510091601 10 337 4.8 17.7 0.00 0.00 0.00 75 1020.1
20260510090101 9 150 6.4 17.7 0.00 0.00 0.00 76 1020.3
20260510084558 9 213 3.2 24.1 0.00 0.00 0.00 78 1020.3
20260510083056 9 112 4.8 16.1 0.00 0.00 0.00 78 1020.4
20260510081555 8 81 4.8 22.5 0.00 0.00 0.00 79 1020.4
20260510080052 8 148 4.8 12.9 0.00 0.00 0.00 80 1020.5
20260510074553 8 210 4.8 17.7 0.00 0.00 0.00 80 1020.5
20260510073106 8 106 4.8 24.1 0.00 0.00 0.00 81 1020.7
20260510071558 8 11 1.6 9.7 0.00 0.00 0.00 82 1020.6
20260510070050 8 184 3.2 14.5 0.00 0.00 0.00 82 1020.6
20260510064556 8 176 3.2 12.9 0.00 0.00 0.00 83 1020.5
20260510063048 8 170 3.2 11.3 0.00 0.00 0.00 83 1020.4
20260510061549 8 340 3.2 16.1 0.00 0.00 0.00 83 1020.0
20260510060046 8 110 3.2 14.5 0.00 0.00 0.00 83 1020.0
20260510054544 8 127 1.6 16.1 0.00 0.00 0.00 84 1020.0
20260510053042 8 129 1.6 14.5 0.00 0.00 0.00 84 1020.0
20260510051545 8 91 1.6 12.9 0.00 0.00 0.00 85 1020.0
20260510050042 8 152 1.6 16.1 0.00 0.00 0.00 86 1020.1
20260510044548 8 120 0.0 11.3 0.00 0.00 0.00 86 1020.3
20260510043038 8 146 1.6 11.3 0.00 0.00 0.00 86 1020.0
20260510041537 8 99 4.8 14.5 0.00 0.00 0.00 86 1020.1
20260510040035 8 176 1.6 9.7 0.00 0.00 0.00 86 1020.1
20260510034536 8 235 1.6 9.7 0.00 0.00 0.00 87 1020.3
20260510033033 8 186 1.6 11.3 0.00 0.00 0.00 86 1020.4
20260510031533 8 167 1.6 9.7 0.00 0.00 0.00 86 1020.6
20260510030031 8 131 3.2 11.3 0.00 0.00 0.00 86 1020.5
20260510024527 8 196 4.8 11.3 0.00 0.00 0.00 85 1020.6
20260510023025 8 164 0.0 9.7 0.00 0.00 0.00 86 1020.6
20260510021534 8 167 3.2 12.9 0.00 0.00 0.00 86 1020.9
20260510020024 8 194 0.0 11.3 0.00 0.00 0.00 86 1020.7
20260510014523 8 234 1.6 16.1 0.00 0.00 0.00 86 1020.7
20260510013023 8 124 1.6 9.7 0.00 0.00 0.00 86 1020.5
20260510011521 8 121 1.6 9.7 0.00 0.00 0.00 87 1020.7
20260510010019 8 169 3.2 12.9 0.00 0.00 0.00 86 1020.6
20260510004518 8 347 3.2 12.9 0.00 0.00 0.00 86 1020.6
20260510003018 8 167 3.2 12.9 0.00 0.00 0.00 85 1020.5
20260510001513 8 154 1.6 11.3 0.00 0.00 0.00 84 1020.6
20260510000017 8 36 0.0 8.0 0.00 0.00 0.00 82 1020.7
20260509234510 8 153 3.2 9.7 0.00 0.00 0.00 80 1020.7
20260509233007 8 82 1.6 8.0 0.00 0.00 0.00 77 1020.8
20260509231504 8 130 1.6 12.9 0.00 0.00 0.00 74 1020.9
20260509230002 9 89 1.6 8.0 0.00 0.00 0.00 72 1020.9
20260509224605 9 149 1.6 9.7 0.00 0.00 0.00 71 1020.9
20260509223106 10 138 1.6 11.3 0.00 0.00 0.00 68 1020.8
20260509221606 10 37 1.6 16.1 0.00 0.00 0.00 65 1020.6
20260509220100 10 78 1.6 9.7 0.00 0.00 0.00 60 1020.6
20260509214607 11 111 1.6 9.7 0.00 0.00 0.00 54 1020.4
20260509213056 11 122 1.6 9.7 0.00 0.00 0.00 54 1020.3
20260509211559 12 150 0.0 9.7 0.00 0.00 0.00 56 1020.0
20260509210114 12 191 1.6 8.0 0.00 0.00 0.00 52 1019.8
20260509204558 12 133 0.0 11.3 0.00 0.00 0.00 49 1019.7
20260509203055 13 184 0.0 4.8 0.00 0.00 0.00 49 1019.5
20260509201601 13 124 0.0 11.3 0.00 0.00 0.00 50 1019.5
20260509194553 13 201 1.6 8.0 0.00 0.00 0.00 50 1019.1
20260509193052 14 164 1.6 11.3 0.00 0.00 0.00 50 1018.9
20260509191554 15 131 0.0 6.4 0.00 0.00 0.00 50 1018.8
20260509190106 15 137 0.0 8.0 0.00 0.00 0.00 49 1018.6
20260509184551 16 53 3.2 11.3 0.00 0.00 0.00 47 1018.6